| time (UTC) | temp C | wind direction | speed KPH | gust KPH | rain 1hr cm | rain 24hr cm | rain mn cm | humidity % | barometer mb |
| 20260510114606 | 16 | 255 | 1.6 | 9.7 | 0.00 | 0.00 | 0.00 | 81 | 1013.7 |
| 20260510113059 | 17 | 139 | 0.0 | 8.0 | 0.00 | 0.00 | 0.00 | 80 | 1013.6 |
| 20260510111558 | 16 | 55 | 3.2 | 16.1 | 0.00 | 0.00 | 0.00 | 79 | 1013.5 |
| 20260510110057 | 17 | 120 | 3.2 | 16.1 | 0.00 | 0.00 | 0.00 | 79 | 1013.4 |
| 20260510104559 | 17 | 113 | 8.0 | 19.3 | 0.00 | 0.00 | 0.00 | 77 | 1013.3 |
| 20260510103056 | 18 | 47 | 8.0 | 22.5 | 0.00 | 0.00 | 0.00 | 74 | 1013.0 |
| 20260510101556 | 18 | 156 | 4.8 | 12.9 | 0.00 | 0.00 | 0.00 | 75 | 1012.9 |
| 20260510100100 | 18 | 204 | 3.2 | 11.3 | 0.00 | 0.00 | 0.00 | 75 | 1012.8 |
| 20260510094554 | 18 | 224 | 1.6 | 8.0 | 0.00 | 0.00 | 0.00 | 75 | 1012.9 |
| 20260510093055 | 17 | 203 | 3.2 | 8.0 | 0.00 | 0.00 | 0.00 | 77 | 1012.9 |
| 20260510091552 | 17 | 65 | 1.6 | 4.8 | 0.00 | 0.00 | 0.00 | 80 | 1012.8 |
| 20260510090051 | 16 | 74 | 3.2 | 14.5 | 0.00 | 0.00 | 0.00 | 80 | 1012.9 |
| 20260510084550 | 16 | 92 | 6.4 | 14.5 | 0.00 | 0.00 | 0.00 | 82 | 1012.9 |
| 20260510083059 | 16 | 51 | 4.8 | 17.7 | 0.00 | 0.00 | 0.00 | 82 | 1012.9 |
| 20260510081549 | 16 | 113 | 4.8 | 19.3 | 0.00 | 0.00 | 0.00 | 82 | 1013.0 |
| 20260510080047 | 17 | 85 | 6.4 | 16.1 | 0.00 | 0.00 | 0.00 | 79 | 1012.8 |
| 20260510074546 | 17 | 137 | 9.7 | 20.9 | 0.00 | 0.00 | 0.00 | 76 | 1012.9 |
| 20260510073045 | 17 | 97 | 3.2 | 9.7 | 0.00 | 0.00 | 0.00 | 75 | 1012.7 |
| 20260510071544 | 17 | 212 | 0.0 | 6.4 | 0.00 | 0.00 | 0.00 | 73 | 1012.6 |
| 20260510070048 | 17 | 27 | 0.0 | 0.0 | 0.00 | 0.00 | 0.00 | 73 | 1012.5 |
| 20260510064544 | 16 | 87 | 0.0 | 3.2 | 0.00 | 0.00 | 0.00 | 72 | 1012.7 |
| 20260510063043 | 16 | 106 | 3.2 | 8.0 | 0.00 | 0.00 | 0.00 | 72 | 1012.6 |
| 20260510061542 | 16 | 69 | 3.2 | 8.0 | 0.00 | 0.00 | 0.00 | 71 | 1012.4 |
| 20260510060041 | 16 | 79 | 1.6 | 8.0 | 0.00 | 0.00 | 0.00 | 72 | 1012.3 |
| 20260510054540 | 16 | 76 | 0.0 | 0.0 | 0.00 | 0.00 | 0.00 | 72 | 1012.1 |
| 20260510053039 | 16 | 224 | 0.0 | 3.2 | 0.00 | 0.00 | 0.00 | 72 | 1012.2 |
| 20260510051538 | 15 | 95 | 0.0 | 3.2 | 0.00 | 0.00 | 0.00 | 75 | 1011.8 |
| 20260510050043 | 15 | 240 | 0.0 | 0.0 | 0.00 | 0.00 | 0.00 | 71 | 1012.0 |
| 20260510044535 | 15 | 16 | 0.0 | 0.0 | 0.00 | 0.00 | 0.00 | 70 | 1012.0 |
| 20260510043035 | 15 | 8 | 0.0 | 0.0 | 0.00 | 0.00 | 0.00 | 71 | 1011.8 |
| 20260510041533 | 16 | 108 | 0.0 | 0.0 | 0.00 | 0.00 | 0.00 | 69 | 1011.9 |
| 20260510040033 | 16 | 102 | 0.0 | 6.4 | 0.00 | 0.00 | 0.00 | 67 | 1011.9 |
| 20260510034532 | 16 | 86 | 0.0 | 4.8 | 0.00 | 0.00 | 0.00 | 68 | 1011.9 |
| 20260510033034 | 16 | 63 | 4.8 | 11.3 | 0.00 | 0.00 | 0.00 | 70 | 1011.7 |
| 20260510031529 | 16 | 93 | 1.6 | 8.0 | 0.00 | 0.00 | 0.00 | 70 | 1011.8 |
| 20260510030027 | 16 | 14 | 1.6 | 4.8 | 0.00 | 0.00 | 0.00 | 67 | 1012.1 |
| 20260510024528 | 16 | 122 | 0.0 | 6.4 | 0.00 | 0.00 | 0.00 | 68 | 1012.3 |
| 20260510023027 | 16 | 77 | 0.0 | 8.0 | 0.00 | 0.00 | 0.00 | 68 | 1012.3 |
| 20260510021529 | 16 | 83 | 6.4 | 20.9 | 0.00 | 0.00 | 0.00 | 67 | 1012.2 |
| 20260510020023 | 16 | 89 | 6.4 | 12.9 | 0.00 | 0.00 | 0.00 | 67 | 1012.3 |
| 20260510014522 | 17 | 66 | 1.6 | 9.7 | 0.00 | 0.00 | 0.00 | 65 | 1012.2 |
| 20260510013021 | 17 | 52 | 4.8 | 11.3 | 0.00 | 0.00 | 0.00 | 59 | 1012.5 |
| 20260510011521 | 17 | 59 | 1.6 | 4.8 | 0.00 | 0.00 | 0.00 | 62 | 1012.7 |
| 20260510010020 | 17 | 31 | 3.2 | 6.4 | 0.00 | 0.00 | 0.00 | 65 | 1012.6 |
| 20260510004519 | 16 | 119 | 0.0 | 6.4 | 0.00 | 0.00 | 0.00 | 66 | 1012.5 |
| 20260510003019 | 17 | 79 | 1.6 | 6.4 | 0.00 | 0.00 | 0.00 | 64 | 1012.5 |
| 20260510001517 | 17 | 343 | 9.7 | 19.3 | 0.00 | 0.00 | 0.00 | 59 | 1012.6 |
| 20260510000016 | 16 | 42 | 4.8 | 12.9 | 0.00 | 0.00 | 0.00 | 66 | 1012.7 |
| 20260509234529 | 16 | 82 | 1.6 | 11.3 | 0.00 | 0.00 | 0.00 | 66 | 1013.2 |
| 20260509233013 | 16 | 47 | 3.2 | 14.5 | 0.00 | 0.00 | 0.00 | 68 | 1013.4 |
| 20260509231516 | 18 | 79 | 1.6 | 8.0 | 0.00 | 0.00 | 0.00 | 52 | 1013.1 |
| 20260509230009 | 17 | 331 | 6.4 | 12.9 | 0.00 | 0.00 | 0.00 | 57 | 1013.0 |
| 20260509224519 | 17 | 101 | 1.6 | 9.7 | 0.00 | 0.00 | 0.00 | 65 | 1012.9 |
| 20260509223006 | 18 | 99 | 3.2 | 14.5 | 0.00 | 0.00 | 0.00 | 57 | 1012.8 |
| 20260509221504 | 17 | 149 | 0.0 | 3.2 | 0.00 | 0.00 | 0.00 | 58 | 1013.5 |
| 20260509220100 | 17 | 16 | 11.3 | 19.3 | 0.00 | 0.00 | 0.00 | 59 | 1013.4 |
| 20260509214559 | 16 | 335 | 1.6 | 6.4 | 0.00 | 0.00 | 0.00 | 66 | 1013.9 |
| 20260509213059 | 16 | 240 | 0.0 | 1.6 | 0.00 | 0.00 | 0.00 | 66 | 1014.5 |
| 20260509211558 | 17 | 291 | 0.0 | 8.0 | 0.00 | 0.00 | 0.00 | 65 | 1014.1 |
| 20260509204606 | 17 | 33 | 3.2 | 11.3 | 0.00 | 0.00 | 0.00 | 63 | 1014.3 |
| 20260509203108 | 17 | 45 | 4.8 | 14.5 | 0.00 | 0.00 | 0.00 | 62 | 1014.0 |
| 20260509201556 | 17 | 16 | 8.0 | 16.1 | 0.00 | 0.00 | 0.00 | 64 | 1014.3 |
| 20260509200054 | 17 | 24 | 0.0 | 0.0 | 0.00 | 0.00 | 0.00 | 65 | 1014.6 |
| 20260509194554 | 17 | 162 | 0.0 | 9.7 | 0.00 | 0.00 | 0.00 | 66 | 1014.7 |
| 20260509193055 | 17 | 14 | 0.0 | 3.2 | 0.00 | 0.00 | 0.00 | 66 | 1014.4 |
| 20260509191553 | 17 | 69 | 1.6 | 6.4 | 0.00 | 0.00 | 0.00 | 66 | 1014.3 |
| 20260509190055 | 17 | 347 | 3.2 | 6.4 | 0.00 | 0.00 | 0.00 | 65 | 1014.2 |
| 20260509184551 | 17 | 8 | 1.6 | 6.4 | 0.00 | 0.00 | 0.00 | 63 | 1014.1 |
| 20260509183052 | 17 | 41 | 3.2 | 8.0 | 0.00 | 0.00 | 0.00 | 62 | 1013.9 |
| 20260509181606 | 17 | 44 | 0.0 | 0.0 | 0.00 | 0.00 | 0.00 | 63 | 1013.7 |
| 20260509180111 | 18 | 113 | 0.0 | 0.0 | 0.00 | 0.00 | 0.00 | 62 | 1013.8 |
| 20260509174548 | 18 | 77 | 0.0 | 0.0 | 0.00 | 0.00 | 0.00 | 60 | 1013.7 |
| 20260509173106 | 18 | 124 | 0.0 | 4.8 | 0.00 | 0.00 | 0.00 | 60 | 1013.9 |
| 20260509171552 | 18 | 101 | 3.2 | 12.9 | 0.00 | 0.00 | 0.00 | 60 | 1013.9 |
| 20260509170051 | 18 | 101 | 4.8 | 12.9 | 0.00 | 0.00 | 0.00 | 59 | 1014.1 |
| 20260509164544 | 19 | 124 | 4.8 | 16.1 | 0.00 | 0.00 | 0.00 | 58 | 1014.1 |
| 20260509163044 | 19 | 91 | 6.4 | 11.3 | 0.00 | 0.00 | 0.00 | 59 | 1014.3 |
| 20260509161552 | 19 | 109 | 8.0 | 11.3 | 0.00 | 0.00 | 0.00 | 59 | 1014.3 |
| 20260509160040 | 20 | 132 | 0.0 | 6.4 | 0.00 | 0.00 | 0.00 | 61 | 1014.4 |
| 20260509154539 | 20 | 184 | 0.0 | 6.4 | 0.00 | 0.00 | 0.00 | 61 | 1014.4 |
| 20260509153038 | 19 | 86 | 1.6 | 6.4 | 0.00 | 0.00 | 0.00 | 62 | 1014.6 |
| 20260509151539 | 19 | 359 | 1.6 | 11.3 | 0.00 | 0.00 | 0.00 | 63 | 1014.8 |
| 20260509150034 | 20 | 73 | 1.6 | 9.7 | 0.00 | 0.00 | 0.00 | 61 | 1015.0 |
| 20260509144533 | 20 | 102 | 3.2 | 8.0 | 0.00 | 0.00 | 0.00 | 62 | 1015.2 |
| 20260509143035 | 19 | 133 | 0.0 | 12.9 | 0.00 | 0.00 | 0.00 | 62 | 1015.5 |
| 20260509141540 | 19 | 77 | 4.8 | 11.3 | 0.00 | 0.00 | 0.00 | 61 | 1015.7 |
| 20260509140027 | 19 | 75 | 3.2 | 11.3 | 0.00 | 0.00 | 0.00 | 61 | 1016.0 |
| 20260509134532 | 19 | 54 | 3.2 | 11.3 | 0.00 | 0.00 | 0.00 | 66 | 1016.2 |
| 20260509133025 | 19 | 353 | 3.2 | 11.3 | 0.00 | 0.00 | 0.00 | 67 | 1016.3 |
| 20260509131528 | 20 | 65 | 1.6 | 17.7 | 0.00 | 0.00 | 0.00 | 68 | 1016.6 |
| 20260509130025 | 19 | 86 | 4.8 | 19.3 | 0.00 | 0.00 | 0.00 | 67 | 1016.7 |
| 20260509124521 | 20 | 134 | 6.4 | 19.3 | 0.00 | 0.00 | 0.00 | 67 | 1016.9 |
| 20260509123021 | 19 | 95 | 6.4 | 22.5 | 0.00 | 0.00 | 0.00 | 68 | 1017.0 |
| 20260509121522 | 19 | 63 | 8.0 | 20.9 | 0.00 | 0.00 | 0.00 | 67 | 1016.9 |
| 20260509120023 | 19 | 212 | 6.4 | 22.5 | 0.00 | 0.00 | 0.00 | 64 | 1017.0 |